EW1898 Weather Reports


time (UTC)temp
F
wind
direction
speed
knots
gust
knots
rain 1hr
in
rain 24hr
in
rain mn
in
humidity
%
barometer
mb
20260504011523 43 298 0.0 0.0 0.00 0.02 0.02 57 1009.1
20260504010023 44 298 0.0 0.9 0.00 0.02 0.02 57 1009.0
20260504004536 45 298 0.0 0.9 0.00 0.02 0.02 57 1008.8
20260504003022 46 298 0.0 0.0 0.00 0.02 0.02 51 1008.7
20260504001531 48 298 0.0 0.0 0.00 0.02 0.02 48 1008.4
20260504000021 49 298 0.9 5.2 0.00 0.02 0.02 45 1008.4
20260503234523 49 328 1.7 7.0 0.00 0.02 0.02 45 1008.2
20260503233019 50 300 0.9 6.1 0.00 0.02 0.02 44 1008.0
20260503231521 50 281 3.5 7.8 0.00 0.02 0.02 43 1007.8
20260503230020 51 329 4.3 9.6 0.00 0.02 0.02 42 1007.7
20260503224618 51 317 3.5 9.6 0.00 0.02 0.02 41 1007.5
20260503223016 51 268 7.0 12.2 0.00 0.02 0.02 40 1007.2
20260503221517 51 339 3.5 9.6 0.00 0.02 0.02 41 1007.1
20260503220027 51 329 5.2 13.0 0.00 0.02 0.02 40 1006.9
20260503214528 51 333 3.5 8.7 0.00 0.07 0.02 43 1006.9
20260503213028 50 312 2.6 10.4 0.00 0.07 0.02 42 1006.8
20260503211516 51 309 4.3 15.6 0.00 0.07 0.02 41 1006.7
20260503210017 51 347 4.3 15.6 0.00 0.07 0.02 40 1006.3
20260503204522 51 287 3.5 16.5 0.00 0.07 0.02 41 1006.2
20260503203014 51 329 6.1 15.6 0.00 0.07 0.02 39 1005.9
20260503201510 52 305 4.3 12.2 0.00 0.07 0.02 41 1005.8
20260503200009 51 294 3.5 8.7 0.00 0.07 0.02 42 1005.8
20260503194508 51 340 4.3 13.0 0.00 0.07 0.02 42 1005.8
20260503193007 51 304 2.6 7.0 0.00 0.07 0.02 45 1005.9
20260503191506 51 278 2.6 5.2 0.00 0.07 0.02 46 1005.9
20260503190011 51 346 3.5 7.8 0.00 0.07 0.02 46 1005.8
20260503184504 51 340 3.5 9.6 0.00 0.07 0.02 48 1006.0
20260503183106 51 317 7.0 12.2 0.00 0.07 0.02 48 1005.9
20260503181607 50 338 3.5 9.6 0.00 0.07 0.02 50 1006.2
20260503180055 50 280 2.6 10.4 0.00 0.07 0.02 53 1006.1
20260503174604 50 298 4.3 13.9 0.00 0.07 0.02 53 1006.1
20260503173052 49 343 4.3 10.4 0.00 0.07 0.02 55 1006.1
20260503171550 49 330 3.5 10.4 0.00 0.07 0.02 59 1006.0
20260503081547 41 288 0.9 3.5 0.00 0.16 0.00 93 1008.0
20260503071541 42 291 0.0 2.6 0.00 0.16 0.00 95 1008.4
20260503054536 42 270 0.0 1.7 0.00 0.16 0.00 95 1009.4
20260503053027 43 285 0.0 2.6 0.00 0.16 0.00 95 1009.6
20260503051525 43 292 0.0 3.5 0.00 0.16 0.00 95 1009.7
20260503050027 43 315 0.9 4.3 0.00 0.16 0.00 95 1009.9
20260503044521 43 285 0.0 1.7 0.00 0.16 0.00 95 1010.0
20260503043019 44 298 0.0 1.7 0.00 0.16 0.00 95 1010.1
20260503041517 44 299 1.7 4.3 0.00 0.16 0.00 96 1010.4
20260503040025 44 303 0.9 5.2 0.00 0.16 0.00 97 1010.3
20260503034513 44 293 0.0 0.9 0.00 0.16 0.16 97 1010.4
20260503033012 45 293 0.0 2.6 0.00 0.16 0.16 97 1010.6
20260503031512 44 265 0.0 0.9 0.00 0.16 0.16 97 1010.6
20260503030010 44 265 0.0 0.0 0.00 0.16 0.16 96 1010.4
20260503024511 45 265 0.0 0.0 0.00 0.16 0.16 96 1010.4
20260503023011 45 265 0.0 0.0 0.00 0.16 0.16 96 1010.4
20260503021515 45 265 0.0 0.0 0.00 0.16 0.16 96 1010.7
20260503020010 46 265 0.0 0.0 0.00 0.16 0.16 96 1010.6
20260503014509 46 265 0.0 0.0 0.00 0.16 0.16 95 1010.7
20260503013008 46 265 0.0 0.0 0.00 0.16 0.16 95 1010.7